Home   Weather   Port Vila   Past weeks

Flag for Vanuatu Past Weather in Port Vila, Vanuatu — Yesterday and Last 2 Weeks

Now
68 °F

Passing clouds.


Feels Like: 68 °F
Forecast: 72 / 78 °F
Wind: 2 mph from Northeast

Location: Bauerfield Efate

Current Time: Aug 31, 2016 at 7:47:59 AM

Latest Report: Aug 31, 2016 at 7:00 AM


Visibility: N/A

Pressure: 30.09 "Hg

Humidity: 88%

Dew Point: 64 °F

Location of Port VilaLocation

Past Weather in Port Vila — Graph

°F

Port Vila Temperature Yesterday

Maximum temperature yesterday: 77 °F (at 11:00 AM)
Minimum temperature yesterday: 70 °F (at 10:00 PM)
Average temperature yesterday: 74 °F

High & Low Weather Summary for the Past Weeks

 TemperatureHumidityPressure
High86 °F (Aug 28, 12:00 PM)100% (Aug 19, 3:00 AM)30.12 "Hg (Aug 19, 3:00 AM)
Low57 °F (Aug 21, 5:00 AM)54% (Aug 16, 11:00 AM)29.86 "Hg (Aug 17, 3:00 PM)
Average73 °F85%29.97 "Hg
* Reported Aug 16 6:00 AM — Aug 31 6:00 AM, Port Vila, Weather by CustomWeather, © 2016

Note: Actual official high and low records may vary slightly from our data, if they occured in-between our weather recording intervals... More about our weather records

Advertising

Port Vila Weather History for the Previous 24 Hours

Scroll right to see more
 ConditionsComfort  
Time TempWeatherWind HumidityBarometerVisibility
6:00 AM
Wed, Aug 31
66 °FPassing clouds.3 mph88%30.09 "HgN/A
5:00 AM66 °FPassing clouds.2 mph83%30.07 "HgN/A
4:00 AM70 °FPartly cloudy.9 mph78%30.04 "HgN/A
3:00 AM70 °FPartly cloudy.6 mph83%30.07 "HgN/A
2:00 AM70 °FPartly cloudy.6 mph88%30.07 "HgN/A
1:00 AM70 °FSprinkles. Partly cloudy.2 mph88%30.09 "HgN/A
11:00 PM
Tue, Aug 30
72 °FPassing clouds.3 mph83%30.09 "HgN/A
10:00 PM70 °FPassing clouds.3 mph94%30.09 "HgN/A
9:00 PM72 °FSprinkles. Passing clouds.5 mph88%30.12 "Hg6 mi
8:00 PM72 °FPassing clouds.3 mph83%30.09 "HgN/A
7:00 PM73 °FPassing clouds.6 mph78%30.07 "HgN/A
6:00 PM73 °FPassing clouds.8 mph83%30.04 "HgN/A
5:00 PM75 °FBroken clouds.13 mph78%30.04 "HgN/A
4:00 PM77 °FBroken clouds.13 mph74%30.01 "HgN/A
3:00 PM75 °FBroken clouds.13 mph83%30.01 "HgN/A
2:00 PM77 °FPartly sunny.13 mph79%30.01 "HgN/A
1:00 PM77 °FBroken clouds.14 mph79%30.04 "HgN/A
12:00 PM77 °FMostly cloudy.15 mph79%30.04 "HgN/A
11:00 AM77 °FBroken clouds.15 mph79%30.04 "HgN/A
10:00 AM75 °FBroken clouds.12 mph83%30.07 "HgN/A
9:00 AM75 °FBroken clouds.13 mph83%30.07 "HgN/A
8:00 AM73 °FMostly cloudy.7 mph89%30.07 "HgN/A
7:00 AM72 °FSprinkles. Mostly cloudy.10 mph88%30.07 "Hg5 mi
Weather by CustomWeather, © 2016

See weather overviewHow to use our weather pages